FW7988 Weather Reports


Display with metric or nautical units.
time (UTC)temp
F
wind
direction
speed
MPH
gust
MPH
rain 1hr
in
rain 24hr
in
rain mn
in
humidity
%
barometer
mb
20260510082830 70 182 5.0 7.0 0.00 0.00 0.00 89
20260510082327 70 186 5.0 8.0 0.00 0.00 0.00 89
20260510081826 70 187 6.0 8.0 0.00 0.00 0.00 88
20260510081322 70 170 5.0 8.0 0.00 0.00 0.00 88
20260510080818 70 169 5.0 7.0 0.00 0.00 0.00 88
20260510080314 70 150 5.0 7.0 0.00 0.00 0.00 87
20260510075811 71 186 6.0 10.0 0.00 0.00 0.00 87
20260510075308 71 191 7.0 9.0 0.00 0.00 0.00 87
20260510074805 71 190 4.0 10.0 0.00 0.00 0.00 87
20260510074302 71 194 5.0 9.0 0.00 0.00 0.00 87
20260510073758 71 172 5.0 7.0 0.00 0.00 0.00 86
20260510073254 71 174 5.0 8.0 0.00 0.00 0.00 86
20260510072749 71 186 4.0 8.0 0.00 0.00 0.00 86
20260510072246 71 135 2.0 6.0 0.00 0.00 0.00 86
20260510071742 71 151 5.0 6.0 0.00 0.00 0.00 85
20260510071239 71 174 5.0 7.0 0.00 0.00 0.00 85
20260510070738 71 165 3.0 5.0 0.00 0.00 0.00 85
20260510070234 71 169 4.0 6.0 0.00 0.00 0.00 85
20260510065729 71 174 4.0 6.0 0.00 0.00 0.00 85
20260510065226 71 158 3.0 5.0 0.00 0.00 0.00 85
20260510064722 71 205 4.0 7.0 0.00 0.00 0.00 85
20260510064220 71 143 4.0 6.0 0.00 0.00 0.00 85
20260510063717 71 178 3.0 6.0 0.00 0.00 0.00 84
20260510063213 72 181 3.0 7.0 0.00 0.00 0.00 84
20260510062709 72 179 2.0 5.0 0.00 0.00 0.00 83
20260510062206 72 165 5.0 7.0 0.00 0.00 0.00 83
20260510061701 73 159 7.0 9.0 0.00 0.00 0.00 82
20260510061159 73 157 3.0 8.0 0.00 0.00 0.00 82
20260510060655 73 199 6.0 8.0 0.00 0.00 0.00 81
20260510060152 73 169 3.0 9.0 0.00 0.00 0.00 80
20260510055648 73 179 4.0 7.0 0.00 0.00 0.00 80
20260510055145 74 165 2.0 7.0 0.00 0.00 0.00 79
20260510054641 74 185 4.0 8.0 0.00 0.00 0.00 78
20260510054137 75 171 4.0 6.0 0.00 0.00 0.00 78
20260510053636 75 160 5.0 7.0 0.00 0.00 0.00 77
20260510053133 75 130 6.0 7.0 0.00 0.00 0.00 77
20260510052629 75 165 3.0 5.0 0.00 0.00 0.00 77
20260510052126 75 143 5.0 8.0 0.00 0.00 0.00 77
20260510051621 75 192 3.0 9.0 0.00 0.00 0.00 77
20260510051118 75 156 5.0 7.0 0.00 0.00 0.00 77
20260510050615 75 168 4.0 8.0 0.00 0.00 0.00 78
20260510050113 75 160 4.0 6.0 0.00 0.00 0.00 79
20260510045609 74 170 4.0 6.0 0.00 0.01 0.01 80
20260510045105 75 168 3.0 5.0 0.00 0.01 0.01 80
20260510044602 75 183 3.0 3.0 0.00 0.01 0.01 81
20260510044059 75 142 3.0 3.0 0.00 0.01 0.01 81
20260510043554 75 181 1.0 3.0 0.00 0.01 0.01 81
20260510043050 75 203 1.0 1.0 0.00 0.01 0.01 81
20260510042544 75 208 0.0 1.0 0.00 0.01 0.01 81
20260510042040 75 180 2.0 3.0 0.00 0.01 0.01 81
20260510041537 75 193 1.0 2.0 0.00 0.01 0.01 81
20260510041035 75 127 1.0 3.0 0.00 0.01 0.01 82
20260510040531 75 147 2.0 2.0 0.00 0.01 0.01 82
20260510040027 75 153 1.0 3.0 0.00 0.01 0.01 81
20260510035523 75 142 0.0 2.0 0.00 0.01 0.01 81
20260510035023 76 174 3.0 5.0 0.00 0.01 0.01 80
20260510034522 76 176 2.0 2.0 0.00 0.01 0.01 80
20260510034018 76 193 2.0 3.0 0.00 0.01 0.01 79
20260510033514 76 182 3.0 5.0 0.00 0.01 0.01 79
20260510033012 77 198 2.0 3.0 0.00 0.01 0.01 79
20260510032508 77 179 0.0 2.0 0.00 0.01 0.01 78
20260510032009 77 165 3.0 6.0 0.00 0.01 0.01 78
20260510031504 77 151 1.0 3.0 0.00 0.01 0.01 78
20260510031000 78 170 0.0 2.0 0.00 0.01 0.01 77
20260510030456 78 140 3.0 7.0 0.00 0.01 0.01 77
20260510025953 78 181 2.0 3.0 0.00 0.01 0.01 76
20260510025450 78 126 4.0 8.0 0.00 0.01 0.01 75
20260510024948 79 142 3.0 6.0 0.00 0.01 0.01 74
20260510024444 79 155 4.0 6.0 0.00 0.01 0.01 73
20260510023940 79 114 5.0 7.0 0.00 0.01 0.01 73
20260510023437 79 127 5.0 6.0 0.00 0.01 0.01 72
20260510022934 79 161 5.0 8.0 0.00 0.01 0.01 71
20260510022433 78 137 5.0 7.0 0.00 0.01 0.01 71
20260510021932 78 123 2.0 6.0 0.00 0.01 0.01 70
20260510021430 77 154 0.0 0.0 0.00 0.01 0.01 69
20260510020926 78 195 0.0 0.0 0.00 0.01 0.01 68
20260510020421 78 160 1.0 2.0 0.00 0.01 0.01 67
20260510015917 78 155 0.0 0.0 0.00 0.01 0.01 67
20260510015413 78 166 0.0 0.0 0.00 0.01 0.01 66
20260510014908 79 99 0.0 0.0 0.00 0.01 0.01 65
20260510014406 80 161 0.0 0.0 0.00 0.01 0.01 64
20260510013903 80 156 0.0 1.0 0.00 0.01 0.01 62
20260510013357 81 124 2.0 5.0 0.00 0.01 0.01 61
20260510012852 81 128 3.0 6.0 0.00 0.01 0.01 60
20260510012348 81 136 4.0 5.0 0.00 0.01 0.01 60
20260510011843 82 169 4.0 5.0 0.00 0.01 0.01 59
20260510011338 82 145 5.0 6.0 0.00 0.01 0.01 58
20260510010835 82 114 4.0 6.0 0.00 0.01 0.01 57
20260510010332 82 154 5.0 8.0 0.00 0.01 0.01 57
20260510005828 83 128 5.0 6.0 0.00 0.01 0.01 56
20260510005325 84 134 7.0 8.0 0.00 0.01 0.01 56
20260510004823 84 154 4.0 7.0 0.00 0.01 0.01 54
20260510004320 84 142 8.0 10.0 0.00 0.01 0.01 52
20260510003818 84 140 8.0 9.0 0.00 0.01 0.01 51
20260510003314 85 130 6.0 8.0 0.00 0.01 0.01 49
20260510002813 85 140 6.0 7.0 0.00 0.01 0.01 48
20260510002311 86 125 5.0 7.0 0.00 0.01 0.01 48
20260510001807 86 106 3.0 7.0 0.00 0.01 0.01 47
20260510001305 86 147 4.0 6.0 0.00 0.01 0.01 46
20260510000801 86 128 5.0 9.0 0.00 0.01 0.01 46
20260510000259 86 130 6.0 9.0 0.00 0.01 0.01 46
20260509235756 86 151 7.0 11.0 0.00 0.01 0.01 46
20260509235252 86 125 10.0 11.0 0.00 0.01 0.01 45
20260509234747 87 104 9.0 11.0 0.00 0.01 0.01 45
20260509234245 87 133 7.0 10.0 0.00 0.01 0.01 47
20260509233743 88 128 7.0 9.0 0.00 0.01 0.01 46
20260509233240 87 185 7.0 9.0 0.00 0.01 0.01 47
20260509232736 88 143 8.0 10.0 0.00 0.01 0.01 46
20260509232233 88 181 4.0 10.0 0.00 0.01 0.01 46
20260509231730 88 135 3.0 8.0 0.00 0.01 0.01 49
20260509231227 88 97 3.0 5.0 0.00 0.01 0.01 53
20260509230725 88 108 6.0 8.0 0.00 0.01 0.01 53
20260509230221 88 107 4.0 6.0 0.00 0.01 0.01 52
20260509225716 89 163 2.0 7.0 0.00 0.01 0.01 52
20260509225212 89 113 2.0 5.0 0.00 0.01 0.01 50
20260509224708 88 123 6.0 10.0 0.00 0.01 0.01 51
20260509224205 88 93 1.0 7.0 0.00 0.01 0.01 52
20260509223702 88 94 1.0 6.0 0.00 0.01 0.01 52
20260509223159 87 118 5.0 7.0 0.00 0.01 0.01 51
20260509222656 87 136 5.0 7.0 0.00 0.01 0.01 53
20260509222152 87 80 4.0 8.0 0.00 0.01 0.01 52
20260509221648 87 78 3.0 9.0 0.00 0.01 0.01 53
20260509221143 87 176 1.0 6.0 0.00 0.01 0.01 53
20260509220640 87 61 1.0 7.0 0.00 0.01 0.01 54
20260509220136 87 139 3.0 7.0 0.00 0.01 0.01 54
20260509215632 86 147 4.0 6.0 0.00 0.01 0.01 55
20260509215129 86 89 5.0 6.0 0.00 0.01 0.01 54
20260509214626 85 138 5.0 10.0 0.00 0.01 0.01 54
20260509214123 83 91 8.0 11.0 0.00 0.01 0.01 56
20260509213619 83 145 6.0 13.0 0.00 0.01 0.01 56
20260509213115 83 152 11.0 14.0 0.00 0.01 0.01 54
20260509212613 83 104 7.0 14.0 0.00 0.01 0.01 54
20260509212110 84 109 12.0 16.0 0.00 0.01 0.01 53
20260509211606 84 145 9.0 14.0 0.00 0.01 0.01 54
20260509211103 87 116 8.0 14.0 0.00 0.01 0.01 51
20260509210559 92 111 3.0 5.0 0.00 0.01 0.01 44
20260509210056 91 91 3.0 5.0 0.00 0.01 0.01 44
20260509205550 92 335 6.0 9.0 0.00 0.01 0.01 45
20260509205045 93 218 5.0 6.0 0.00 0.01 0.01 42
20260509204542 91 73 1.0 3.0 0.00 0.01 0.01 44
20260509204038 90 10 2.0 8.0 0.00 0.01 0.01 46
20260509203534 89 352 7.0 7.0 0.00 0.01 0.01 48
20260509203033 88 316 2.0 2.0 0.00 0.01 0.01 50
20260509202527 89 273 0.0 5.0 0.00 0.01 0.01 52
20260509202023 89 245 7.0 9.0 0.00 0.01 0.01 49
20260509201518 88 248 5.0 8.0 0.00 0.01 0.01 51
20260509201016 91 266 4.0 6.0 0.00 0.01 0.01 46
20260509200510 91 23 0.0 3.0 0.00 0.01 0.01 43
20260509200007 89 74 2.0 7.0 0.00 0.01 0.01 51
20260509195502 88 207 1.0 7.0 0.00 0.01 0.01 50
20260509195002 87 240 4.0 6.0 0.00 0.01 0.01 54
20260509194457 88 309 4.0 7.0 0.00 0.01 0.01 54
20260509193955 88 278 7.0 10.0 0.00 0.01 0.01 54
20260509193454 89 279 5.0 7.0 0.00 0.01 0.01 53
20260509192951 89 122 3.0 5.0 0.00 0.01 0.01 52
20260509192448 89 229 9.0 11.0 0.00 0.01 0.01 53
20260509191943 88 332 3.0 6.0 0.00 0.01 0.01 56
20260509191438 88 240 4.0 5.0 0.00 0.01 0.01 55
20260509190934 88 235 7.0 8.0 0.00 0.01 0.01 55
20260509190432 89 258 6.0 9.0 0.00 0.01 0.01 54
20260509185929 87 223 3.0 7.0 0.00 0.01 0.01 58
20260509185426 86 245 3.0 5.0 0.00 0.01 0.01 59
20260509184923 84 321 0.0 3.0 0.00 0.01 0.01 63
20260509184421 85 291 5.0 6.0 0.00 0.01 0.01 63
20260509183917 85 313 2.0 3.0 0.00 0.01 0.01 62
20260509183411 85 328 3.0 6.0 0.00 0.01 0.01 62
20260509182908 86 61 1.0 3.0 0.00 0.01 0.01 59
20260509182405 86 198 3.0 5.0 0.00 0.01 0.01 58
20260509181902 87 138 2.0 8.0 0.00 0.01 0.01 59
20260509181400 87 264 6.0 7.0 0.00 0.01 0.01 59
20260509180857 87 328 1.0 6.0 0.00 0.01 0.01 61
20260509180352 87 301 4.0 7.0 0.00 0.01 0.01 62
20260509175849 85 29 2.0 5.0 0.00 0.01 0.01 63
20260509175346 86 242 3.0 8.0 0.00 0.01 0.01 63
20260509174841 85 293 3.0 5.0 0.00 0.01 0.01 65
20260509174338 86 333 3.0 7.0 0.00 0.01 0.01 62
20260509173834 83 335 3.0 6.0 0.00 0.01 0.01 69
20260509173329 84 252 5.0 8.0 0.00 0.01 0.01 67
20260509172825 85 311 5.0 6.0 0.00 0.01 0.01 65
20260509172322 83 196 3.0 7.0 0.00 0.01 0.01 66
20260509171818 83 252 8.0 9.0 0.00 0.01 0.01 66
20260509171314 82 221 5.0 9.0 0.00 0.01 0.01 70
20260509170811 83 282 5.0 9.0 0.00 0.01 0.01 70
20260509170307 83 156 5.0 9.0 0.00 0.01 0.01 70
20260509165806 84 193 7.0 8.0 0.00 0.01 0.01 69
20260509165301 82 123 3.0 6.0 0.00 0.01 0.01 71
20260509164757 82 214 5.0 6.0 0.00 0.01 0.01 72
20260509164254 82 236 6.0 8.0 0.00 0.01 0.01 72
20260509163750 81 209 4.0 7.0 0.00 0.01 0.01 75
20260509163247 81 248 4.0 7.0 0.00 0.01 0.01 74
20260509162745 81 223 5.0 10.0 0.00 0.01 0.01 74
20260509162239 80 232 2.0 5.0 0.00 0.01 0.01 76
20260509161736 80 203 7.0 9.0 0.00 0.01 0.01 76
20260509161232 79 234 1.0 5.0 0.00 0.01 0.01 79
20260509160727 79 254 3.0 5.0 0.00 0.01 0.01 79
20260509160224 80 198 5.0 8.0 0.00 0.01 0.01 78
20260509155718 78 242 4.0 6.0 0.00 0.01 0.01 81
20260509155216 78 245 4.0 8.0 0.00 0.01 0.01 83
20260509154711 77 230 3.0 7.0 0.00 0.01 0.01 84
20260509154209 77 259 5.0 7.0 0.00 0.01 0.01 85
20260509153706 76 221 6.0 8.0 0.00 0.01 0.01 88
20260509153202 76 219 7.0 9.0 0.00 0.01 0.01 88
20260509152658 75 181 5.0 8.0 0.00 0.01 0.01 90
20260509152155 74 172 6.0 7.0 0.00 0.01 0.01 91
20260509151652 75 201 5.0 10.0 0.00 0.01 0.01 91
20260509151149 74 202 5.0 9.0 0.00 0.01 0.01 91
20260509150647 74 179 4.0 7.0 0.00 0.01 0.01 92
20260509150145 74 170 5.0 8.0 0.00 0.01 0.01 91
20260509145641 74 133 4.0 7.0 0.00 0.01 0.01 92
20260509145136 74 196 5.0 9.0 0.00 0.01 0.01 92
20260509144633 74 161 3.0 8.0 0.00 0.01 0.01 94
20260509144130 73 124 1.0 6.0 0.00 0.01 0.01 95
20260509143627 73 125 5.0 7.0 0.00 0.01 0.01 97
20260509143125 73 171 4.0 7.0 0.00 0.01 0.01 97
20260509142620 73 179 9.0 10.0 0.00 0.01 0.01 98
20260509142117 74 166 7.0 9.0 0.00 0.01 0.01 98
20260509141613 73 174 6.0 10.0 0.00 0.01 0.01 98
20260509141109 73 132 5.0 7.0 0.00 0.01 0.01 98
20260509140606 73 185 5.0 7.0 0.00 0.01 0.01 98
20260509140104 72 193 5.0 7.0 0.00 0.01 0.01 98
20260509135601 71 180 5.0 6.0 0.00 0.01 0.01 99
20260509135059 72 141 4.0 5.0 0.00 0.01 0.01 99
20260509134555 71 109 0.0 0.0 0.00 0.01 0.01 99
20260509134053 71 56 0.0 1.0 0.00 0.01 0.01 99
20260509133550 71 11 0.0 2.0 0.00 0.01 0.01 99
20260509133047 72 358 3.0 3.0 0.00 0.01 0.01 99
20260509132546 71 311 0.0 2.0 0.00 0.01 0.01 99
20260509132044 71 327 4.0 5.0 0.00 0.01 0.01 99
20260509131539 71 315 3.0 5.0 0.00 0.01 0.01 99
20260509131036 71 17 2.0 3.0 0.00 0.01 0.01 99
20260509130532 71 333 5.0 6.0 0.00 0.01 0.01 99
20260509130029 71 351 3.0 3.0 0.00 0.01 0.01 99
20260509125525 71 328 2.0 3.0 0.00 0.01 0.01 99
20260509125022 71 322 3.0 3.0 0.00 0.01 0.01 99
20260509124519 71 357 5.0 5.0 0.00 0.01 0.01 99
20260509124016 71 60 1.0 2.0 0.00 0.01 0.01 99
20260509123514 71 352 0.0 1.0 0.00 0.01 0.01 99
20260509123010 71 19 0.0 0.0 0.00 0.01 0.01 99
20260509122506 71 18 0.0 0.0 0.00 0.01 0.01 99
20260509122003 71 22 0.0 1.0 0.00 0.01 0.01 98
20260509121500 71 30 0.0 1.0 0.00 0.01 0.01 98
20260509120958 71 11 0.0 0.0 0.00 0.01 0.01 98
20260509120455 71 26 0.0 0.0 0.00 0.01 0.01 98
20260509115954 71 26 0.0 2.0 0.00 0.01 0.01 98
20260509115450 71 326 2.0 2.0 0.00 0.01 0.01 98
20260509114948 71 8 0.0 0.0 0.00 0.01 0.01 98
20260509114446 71 12 0.0 0.0 0.00 0.01 0.01 98
20260509113945 71 19 1.0 5.0 0.00 0.01 0.01 98
20260509113442 71 6 3.0 5.0 0.00 0.01 0.01 98
20260509112939 71 356 2.0 3.0 0.00 0.01 0.01 98
20260509112436 71 44 0.0 0.0 0.00 0.01 0.01 98
20260509111933 71 67 0.0 1.0 0.00 0.01 0.01 98
20260509111431 71 66 2.0 3.0 0.00 0.01 0.01 98
20260509110928 71 31 2.0 5.0 0.00 0.01 0.01 98
20260509110423 71 55 1.0 3.0 0.00 0.01 0.01 98
20260509105922 71 59 2.0 5.0 0.00 0.01 0.01 98
20260509105420 71 50 3.0 5.0 0.00 0.01 0.01 98
20260509104917 71 44 0.0 5.0 0.00 0.01 0.01 98
20260509104413 71 27 3.0 5.0 0.00 0.01 0.01 98
20260509103911 71 37 3.0 5.0 0.00 0.01 0.01 98
20260509103408 71 26 2.0 3.0 0.00 0.01 0.01 98
20260509102907 71 13 3.0 3.0 0.00 0.01 0.01 98
20260509102404 71 24 2.0 3.0 0.00 0.01 0.01 98
20260509101859 71 33 2.0 2.0 0.00 0.01 0.01 98
20260509101355 71 70 1.0 1.0 0.00 0.01 0.01 98
20260509100854 71 85 1.0 2.0 0.00 0.01 0.01 98
20260509100350 71 75 0.0 0.0 0.00 0.01 0.01 98
20260509095847 71 71 1.0 2.0 0.00 0.01 0.01 98
20260509095344 71 137 0.0 0.0 0.00 0.01 0.01 98
20260509094841 71 138 0.0 0.0 0.00 0.01 0.01 98
20260509094338 71 89 0.0 1.0 0.00 0.01 0.01 98
20260509093836 71 80 2.0 2.0 0.00 0.01 0.01 98
20260509093332 71 75 0.0 0.0 0.00 0.01 0.01 98
20260509092831 71 74 1.0 2.0 0.00 0.01 0.01 97
20260509092328 71 92 0.0 0.0 0.00 0.01 0.01 97
20260509091826 71 88 2.0 3.0 0.00 0.01 0.01 97
20260509091323 71 88 0.0 1.0 0.00 0.01 0.01 97
20260509090820 71 122 0.0 0.0 0.00 0.01 0.01 97
20260509090318 71 95 3.0 3.0 0.07 0.01 0.01 97
20260509085815 71 81 2.0 2.0 0.07 0.01 0.01 97
20260509085313 71 64 0.0 2.0 0.00 0.00 0.00 97
20260509084809 71 60 2.0 2.0 0.00 0.00 0.00 97
20260509084306 71 31 1.0 2.0 0.00 0.00 0.00 97
20260509083803 71 32 3.0 3.0 0.00 0.00 0.00 96
20260509083300 71 0 3.0 3.0 0.00 0.00 0.00 96